Location: Lane
(33.5226°N, 79.8788°W)
Time: 19:19:56
(UTC+00:00)

Courier 1B Rocket - Pass Details

Date: 08 October 2022
Orbit: 920 x 1202 km, 28.3° (Epoch: 01 December)

Event Time Altitude Azimuth Distance (km) Brightness Sun altitude
Rises 23:18:53 0° 258° (WSW) 3,931 10.5 -5.9°
Reaches altitude 10° 23:21:47 10° 254° (WSW) 2,931 9.1 -6.5°
Maximum altitude 23:28:45 56° 178° (S) 1,209 5.5 -7.9°
Enters shadow 23:35:10 10° 102° (ESE) 2,711 6.7 -9.3°
Drops below altitude 10° 23:35:13 10° 102° (ESE) 2,729 - -9.3°
Sets 23:37:50 0° 98° (E) 3,643 - -9.8°
